{"data":{"norad_id":68552,"epoch":"2026-09-20T03:46:10.709760Z","epoch_age_seconds":74277,"freshness":"FRESH","line1":"1 68552U 26070L   26263.15706840  .00022697  00000+0  68066-3 0  9995","line2":"2 68552  53.1596 175.4031 0000537 106.3372 253.7690 15.34408669 26382","mean_motion":15.34408669,"eccentricity":5.37e-5,"inclination_deg":53.1596,"raan_deg":175.4031,"arg_perigee_deg":106.3372,"mean_anomaly_deg":253.769,"bstar":0.00068066,"rev_number":2638,"period_min":93.847227866516,"perigee_km":462.31012249624,"apogee_km":463.04482597077,"semimajor_km":6840.8144742335,"source":"CELESTRAK","updated_at":"2026-09-20T09:00:43.934258Z"}}